"Pseudo-MPEC" for P10PM5c

Created 2019 Jul 13 13:07:12 UT using Find_Orb

Click here for an explanation of pseudo-MPECs

 
 Astrometry: 
     P10PM5c  C2019 07 10CdAstrometry(9UMNc!=iabb4Ycy^t`y:;xQ/NCRlLX_[+3Da+aPF51
     P10PM5c  C2019 07 10G#8[64uPNNjjLuSTs+Fy=_ZLXredacted;cWsm$v,9clickf.'a^F51
     P10PM5c  C2019 07 10Vi(;WSo*8o)UTc1uO8nBpDNd16kLN!0!1h.[LF*VU9sAsop1=8\bF51
     P10PM5c  C2019 07 10AFMWkS,mIH5^1p1Wggm:.g/XRMp4i7ZpI#UM'Kud`2Orfp_Z0GG@F51
     P10PM5c ^C2019 07 11.60597623 19 21.865-20 24 38.75   ~7BJb 21.89GVNEOCP568
     P10PM5c ^C2019 07 11.60715623 19 22.009-20 24 38.70   ~7BJb 21.67GVNEOCP568
     P10PM5c ^C2019 07 11.60834423 19 22.148-20 24 38.63   ~7BJb 21.83GVNEOCP568
     P10PM5c ^C2019 07 12.53406123 21 18.866-20 23 35.93   ~7CHb 22.19GVNEOCP568
     P10PM5c ^C2019 07 12.53524523 21 19.009-20 23 35.88   ~7CHb 21.74GVNEOCP568
     P10PM5c ^C2019 07 12.53642823 21 19.151-20 23 35.80   ~7CHb 21.63GVNEOCP568
     P10PM5c KC2019 07 13%yGOhjA:j(=yUD$+`hkL=c93MD#N('?here2o/Sr#wTtv0?oYC:`H21
     P10PM5c KC2019 07 13:XS(Z8.D@5=,+_W)\1#2uv3jV0for_pJ=IRQOXi]VdLspWy04(l`H21
     P10PM5c KC2019 07 13%u\l@l%bv1explanationY':kKQH5$A_5uo$W$=uSTAsFCRc#NN6H21

Station data:
(568) Mauna Kea  (N19.826116 W155.472200)  US/Hawaii.
(F51) Pan-STARRS 1, Haleakala  (N20.707235 W156.255910)  US/Hawaii.
   Observers N. Primak, A. Schultz, S. Watters, J. Thiel, T. Goggia. Measurer
   PS1 Science Consortium. 1.8-m Ritchey-Chrétien + CCD.
(H21) Astronomical Research Observatory, Westfield  (N39.483057 W87.968270)
   US/Illinois. 0.76-m f/3.0 astrograph + CCD.

Orbital elements:  P10PM5c
   Perihelion 2019 Oct 3.103810 +/- 2.77 TT =  2:29:29 (JD 2458759.603810)
Epoch 2019 Jul 13.0 TT = JDT 2458677.5   Earth MOID: 0.3058   Ma: 0.0314
M 337.81869408 +/- 3.4              (J2000 ecliptic)          AutoNEOCP
n   0.27016171 +/- 0.0358           Peri.  317.96763 +/- 4.3
a   2.36984630 +/- 0.21             Node    51.98632 +/- 2.1
e   0.4544758 +/- 0.0385            Incl.    6.85415 +/- 0.20
P   3.65                   H 20.6   G  0.15   U 10.5  
q 1.29280841 +/- 0.0275    Q 3.44688418 +/- 0.464
From 13 observations 2019 July 10-13; mean residual 0".11
Residuals in arcseconds: 
190710 F51  .04-  .03+    190711 568  .01-  .01+    190713 H21  .01-  .19-    
190710 F51  .21+  .01+    190711 568  .07-  .00     190713 H21  .14+  .39+    
190710 F51  .09-  .02-    190712 568  .05+  .05-    190713 H21  .17-  .12-    
190710 F51  .05-  .00     190712 568  .05+  .07-    
190711 568  .04-  .04+    190712 568  .04+  .06-    

Ephemerides (geocentric):
Date (UTC) HH   RA              Dec         delta   r     elong  mag " sig PA
---- -- -- --  -------------   -----------  ------ ------ -----  --- ---- ---
2019 07 13 13  23 23 25.057   -20 22 23.50  .68603 1.5223 125.7 22.1 .326 157
2019 07 13 14  23 23 30.288   -20 22 20.91  .68565 1.5221 125.7 22.1 .316 156
2019 07 13 15  23 23 35.518   -20 22 18.32  .68528 1.5219 125.7 22.1 .306 155
2019 07 13 16  23 23 40.748   -20 22 15.74  .68490 1.5217 125.7 22.1 .296 154
2019 07 13 17  23 23 45.978   -20 22 13.16  .68453 1.5215 125.8 22.1 .286 153
2019 07 13 18  23 23 51.207   -20 22 10.59  .68415 1.5213 125.8 22.1 .276 152
2019 07 13 19  23 23 56.437   -20 22 08.03  .68378 1.5211 125.8 22.1 .265 150
2019 07 13 20  23 24 01.666   -20 22 05.47  .68340 1.5209 125.8 22.1 .255 149
2019 07 13 21  23 24 06.895   -20 22 02.92  .68303 1.5207 125.8 22.1 .244 147
2019 07 13 22  23 24 12.124   -20 22 00.37  .68265 1.5205 125.8 22.0 .233 145
2019 07 13 23  23 24 17.353   -20 21 57.83  .68228 1.5203 125.9 22.0 .223 142
2019 07 14 00  23 24 22.581   -20 21 55.30  .68191 1.5201 125.9 22.0 .212 140
2019 07 14 01  23 24 27.810   -20 21 52.77  .68153 1.5199 125.9 22.0 .202 137
2019 07 14 02  23 24 33.038   -20 21 50.25  .68116 1.5197 125.9 22.0 .192 134
2019 07 14 03  23 24 38.266   -20 21 47.73  .68079 1.5195 125.9 22.0 .182 130
2019 07 14 04  23 24 43.494   -20 21 45.22  .68041 1.5193 125.9 22.0 .173 126
2019 07 14 05  23 24 48.721   -20 21 42.72  .68004 1.5191 126.0 22.0 .165 121
2019 07 14 06  23 24 53.949   -20 21 40.22  .67967 1.5189 126.0 22.0 .157 116
2019 07 14 07  23 24 59.176   -20 21 37.73  .67930 1.5187 126.0 22.0 .151 111
2019 07 14 08  23 25 04.403   -20 21 35.25  .67892 1.5185 126.0 22.0 .146 104
2019 07 14 09  23 25 09.630   -20 21 32.77  .67855 1.5183 126.0 22.0 .143  98
2019 07 14 10  23 25 14.856   -20 21 30.29  .67818 1.5181 126.0 22.0 .143  90
2019 07 14 11  23 25 20.083   -20 21 27.82  .67781 1.5179 126.1 22.0 .144  83
2019 07 14 12  23 25 25.309   -20 21 25.36  .67744 1.5177 126.1 22.0 .147  76
2019 07 14 13  23 25 30.535   -20 21 22.91  .67707 1.5175 126.1 22.0 .153  69
2019 07 14 14  23 25 35.761   -20 21 20.46  .67670 1.5173 126.1 22.0 .161  63
2019 07 14 15  23 25 40.986   -20 21 18.01  .67632 1.5171 126.1 22.0 .170  57
2019 07 14 16  23 25 46.212   -20 21 15.57  .67595 1.5169 126.2 22.0 .181  52
2019 07 14 17  23 25 51.437   -20 21 13.14  .67558 1.5167 126.2 22.0 .194  47
2019 07 14 18  23 25 56.662   -20 21 10.72  .67521 1.5165 126.2 22.0 .208  43
2019 07 14 19  23 26 01.887   -20 21 08.30  .67484 1.5163 126.2 22.0 .224  39
2019 07 14 20  23 26 07.111   -20 21 05.88  .67447 1.5161 126.2 22.0 .240  36
2019 07 14 21  23 26 12.336   -20 21 03.47  .67410 1.5159 126.2 22.0 .257  33
2019 07 14 22  23 26 17.560   -20 21 01.07  .67373 1.5157 126.3 22.0 .276  31
2019 07 14 23  23 26 22.784   -20 20 58.67  .67336 1.5155 126.3 22.0 .294  28
2019 07 15 00  23 26 28.008   -20 20 56.28  .67300 1.5153 126.3 22.0 .314  26
2019 07 15 01  23 26 33.231   -20 20 53.90  .67263 1.5151 126.3 22.0 .334  24
2019 07 15 02  23 26 38.454   -20 20 51.52  .67226 1.5149 126.3 22.0 .355  23
2019 07 15 03  23 26 43.678   -20 20 49.15  .67189 1.5147 126.3 22.0 .376  21
2019 07 15 04  23 26 48.900   -20 20 46.78  .67152 1.5145 126.4 22.0 .398  20
2019 07 15 05  23 26 54.123   -20 20 44.42  .67115 1.5143 126.4 22.0 .420  19
2019 07 15 06  23 26 59.345   -20 20 42.06  .67078 1.5141 126.4 22.0 .443  17
2019 07 15 07  23 27 04.568   -20 20 39.72  .67042 1.5139 126.4 22.0 .467  16
2019 07 15 08  23 27 09.790   -20 20 37.37  .67005 1.5137 126.4 22.0 .490  15
2019 07 15 09  23 27 15.011   -20 20 35.03  .66968 1.5135 126.4 22.0 .515  14
2019 07 15 10  23 27 20.233   -20 20 32.70  .66931 1.5133 126.5 22.0 .539  14
2019 07 15 11  23 27 25.454   -20 20 30.38  .66895 1.5130 126.5 22.0 .564  13
2019 07 15 12  23 27 30.675   -20 20 28.06  .66858 1.5128 126.5 22.0 .590  12